Voltar ao catálogo

STARLINK-4481

AtivoComunicaçõesVLEO
NORAD 53418·PAYLOAD·🇺🇸 United States

Lançado Aug 10, 2022 de Cape Canaveral Space Force Station

Loading…

Próximas Passagens (próximas 24 horas)

TLE

AtualizadoSource: CelesTrak SupGP

Época: Sep 14, 2026, 20:55 UTC

1 53418C 22097AG  26257.87201389 -.00032928  00000+0 -97302-3 0  2577
2 53418  53.1591 319.7061 0001286  74.7161 181.5317 15.34401914    16

Acompanhe STARLINK-4481 em tempo real com AllMySat

Download on the App Store